This demonstration page uses our WeatherBlox Daily Observations layout. Learn more.

Left ArrowRight Arrow

41.86663, -103.66717

Hourly Observations for July 12, 2020

Temp ( °F °C ) Dew Point ( °F °C ) Humidity (%) Winds ( mph kmh ) Pressure ( in mb ) Visibility ( mi km ) Precip ( " mm )
12:53 am 00:53 Clear 68 20 55 12.8 63 63 ESE 13 20 29.96 1015 10 16.0934 0 0
1:53 am 01:53 Clear 68 20 54 12.2 61 61 ESE 15 24 29.95 1014 10 16.0934 0 0
2:53 am 02:53 Clear 66 18.9 54 12.2 65 65 ESE 15 24 29.93 1014 10 16.0934 0 0
3:53 am 03:53 Clear 65 18.3 55 12.8 70 70 ESE 14 22 29.93 1014 10 16.0934 0 0
4:53 am 04:53 Clear 64 17.8 56 13.3 75 75 ESE 13 20 29.92 1013 10 16.0934 0 0
5:53 am 05:53 Sunny 64 17.8 59 15 84 84 ESE 12 19 29.93 1013 10 16.0934 0 0
6:28 am 06:28 Mostly Cloudy 65 18.3 61 16.1 87 87 E 10 17 29.92 1013 10 16.0934 0 0
6:53 am 06:53 Cloudy 67 19.4 61 16.1 81 81 undefined N/A 29.92 1013 10 16.0934 0 0
7:53 am 07:53 Cloudy 70 21.1 64 17.8 82 82 ESE 14 22 29.93 1014 10 16.0934 0 0
8:53 am 08:53 Partly Cloudy 77 25 66 18.9 69 69 SSE 9 15 29.91 1013 10 16.0934 0 0
9:53 am 09:53 Sunny 82 27.8 65 18.3 56 56 SSE 12 19 29.87 1012 10 16.0934 0 0
10:53 am 10:53 Sunny 87 30.6 63 17.2 45 45 SW 10 17 29.84 1010 10 16.0934 0 0
11:53 am 11:53 Sunny 91 32.8 58 14.4 33 33 S 8 13 29.81 1009 10 16.0934 0 0
12:53 pm 12:53 Sunny 94 34.4 52 11.1 24 24 W 10 17 29.79 1009 10 16.0934 0 0
1:53 pm 13:53 Sunny 94 34.4 51 10.6 23 23 WNW 9 15 29.77 1008 10 16.0934 0 0
2:53 pm 14:53 Sunny 97 36.1 51 10.6 21 21 undefined N/A 29.75 1007 10 16.0934 0 0
3:53 pm 15:53 Sunny 98 36.7 48 8.9 18 18 VRB 6 9 29.72 1006 10 16.0934 0 0
4:53 pm 16:53 Sunny 98 36.7 44 6.7 16 16 VRB 3 6 29.7 1006 10 16.0934 0 0
5:53 pm 17:53 Sunny 99 37.2 45 7.2 16 16 SSE 8 13 29.67 1005 10 16.0934 0 0
6:53 pm 18:53 Sunny 94 34.4 49 9.4 21 21 SSE 8 13 29.66 1004 10 16.0934 0 0
7:53 pm 19:53 Sunny 86 30 59 15 40 40 ESE 10 17 29.67 1005 10 16.0934 0 0
8:53 pm 20:53 Clear 88 31.1 46 7.8 23 23 SSE 8 13 29.67 1005 10 16.0934 0 0
9:53 pm 21:53 Clear 86 30 40 4.4 20 20 SSW 6 9 29.69 1005 10 16.0934 0 0
10:53 pm 22:53 Clear 76 24.4 50 10 40 40 E 6 9 29.68 1005 10 16.0934 0 0
11:53 pm 23:53 Clear 71 21.7 54 12.2 55 55 E 9 15 29.67 1005 10 16.0934 0 0

Powered by AerisWeather